Location: Erlenbrunn
(49.1717°N, 7.6142°E)
Time: 12:32:48
(UTC+00:00)

Cosmos 2221 - Pass Details

Date: 25 November 2020
Orbit: 593 x 615 km, 82.5° (Epoch: 25 January)

Event Time Altitude Azimuth Distance (km) Brightness Sun altitude
Rises 16:34:36 0° 194° (SSW) 2,861 6.5 -9.1°
Reaches altitude 10° 16:36:50 10° 197° (SSW) 1,959 5.7 -9.5°
Maximum altitude 16:41:09 69° 282° (WNW) 653 2.9 -10.1°
Drops below altitude 10° 16:45:29 10° 5° (N) 1,961 4.9 -10.8°
Sets 16:47:42 0° 8° (N) 2,866 5.7 -11.1°
